Temp
64 63 62 62 63 62 61 61 60 59 59 60 61 60 58 59 61 58 59 61 64 67 65 63 62 62 61 63 66 65 63 62 60 61 62 63 65 65 66 66 67 67 67
64 63 62 61 61 60 60 60 60 59 58 58 60 60 61 61 58 58 63 64 67 61 61 59 61 63 61 60 61 65 63 62 60 59 59 61 63 63 64 65 67 69 68
64 63 61 59 58 58 58 59 59 59 58 57 59 59 60 60 59 57 60 61 62 61 61 62 62 60 62 63 64 64 62 63 61 59 58 59 60 62 64 64 63 64 67
63 61 59 58 58 57 57 57 58 58 58 56 57 58 59 59 60 60 61 58 60 64 63 63 65 64 66 65 66 63 62 61 60 58 56 56 58 61 60 61 60 61 62
62 60 59 58 58 57 56 56 56 57 58 57 57 57 57 58 61 56 57 57 57 61 60 63 65 65 67 66 66 62 60 58 57 56 55 56 57 58 58 58 58 59 60
59 59 60 59 58 56 56 55 55 54 56 55 55 57 56 59 54 51 54 56 59 62 63 65 66 63 60 58 59 58 60 58 54 54 51 51 52 54 54 55 55 55 55
58 60 60 59 58 58 57 56 54 53 53 53 54 55 56 57 52 51 51 55 58 59 58 58 60 61 59 61 56 56 56 56 56 55 52 52 53 55 56 54 54 55 56
56 57 58 58 58 57 55 53 53 52 51 54 54 56 55 58 51 50 49 55 58 60 59 58 58 57 59 60 58 58 58 57 56 58 54 56 56 56 57 57 56 56 56
54 55 57 58 57 56 54 54 57 56 49 50 54 55 54 56 49 47 48 56 56 60 62 61 61 59 53 53 59 57 56 57 57 54 53 51 50 48 49 50 51 50 51
53 54 55 55 54 55 55 54 55 54 50 51 51 52 53 56 48 46 49 58 54 56 59 60 56 59 51 51 58 56 55 56 58 58 56 54 52 54 51 52 53 51 52
50 50 51 51 51 52 53 54 52 51 52 49 50 49 52 56 56 47 47 58 56 55 56 58 59 50 48 48 53 57 56 56 55 56 53 53 53 54 55 55 53 56 54
47 46 46 48 50 51 51 51 52 52 47 47 46 47 50 55 51 49 46 47 52 57 56 58 58 47 46 48 51 51 49 52 54 52 51 51 51 52 55 56 58 58 59
44 43 44 46 47 48 47 48 49 50 44 45 47 45 46 52 56 48 46 45 46 55 58 56 52 46 46 48 48 47 46 53 52 51 51 52 52 55 56 57 58 59 60
40 40 41 42 44 47 49 48 49 49 45 47 47 45 46 49 49 49 52 49 47 51 50 53 53 50 49 51 48 48 53 53 53 52 52 55 53 53 54 56 56 59 60
40 39 39 41 43 45 46 47 48 49 47 47 46 47 46 47 46 43 44 52 51 52 52 54 53 54 53 52 52 51 52 54 53 53 52 54 54 53 55 56 57 60 59
38 39 38 39 41 43 45 45 44 45 44 42 42 44 51 45 43 43 42 41 43 46 50 52 52 53 55 55 55 54 53 53 56 55 54 55 53 54 55 55 57 59 58
38 38 39 38 40 41 43 44 43 42 42 42 42 41 43 46 42 45 43 42 42 43 53 54 55 55 55 56 56 56 55 57 58 56 56 54 55 55 54 55 57 58 58
37 39 38 38 38 39 42 43 44 44 43 42 42 41 40 42 42 43 44 44 49 46 55 56 56 55 56 56 56 56 56 56 56 56 54 55 56 55 54 55 57 57 57
36 36 38 39 38 38 40 42 42 42 43 44 47 43 40 41 41 42 44 49 47 50 54 53 54 54 55 56 56 56 57 56 56 56 55 56 56 55 55 57 58 47 50
37 37 37 37 38 38 39 40 40 40 42 43 45 46 41 39 42 44 45 49 50 52 52 58 58 55 55 56 56 55 55 55 55 54 56 56 56 56 56 57 57 57 56
39 40 36 38 38 38 38 38 39 39 40 42 44 45 40 43 45 47 49 50 51 52 55 56 60 55 56 56 55 55 55 54 55 55 56 57 57 56 57 58 58 58 58
42 42 41 39 39 38 38 39 39 39 40 42 43 41 35 43 46 48 49 51 52 55 56 58 60 57 56 56 55 54 55 54 55 57 57 57 57 57 58 58 58 58 57
46 46 46 45 42 37 37 39 38 39 41 42 42 44 45 46 44 47 52 54 55 56 56 57 57 55 55 55 56 56 55 54 57 58 58 57 57 58 59 58 58 58 58
43 45 47 44 43 40 39 38 39 38 42 43 44 43 45 47 46 46 47 52 53 53 52 53 53 54 54 54 55 56 56 58 58 59 60 58 58 56 58 58 58 56 55
40 41 42 44 44 43 41 42 42 42 43 44 45 45 45 48 49 50 50 47 49 50 50 52 52 54 54 55 55 57 51 43 51 48 59 60 59 57 56 58 57 54 52
36 37 38 39 40 42 45 44 44 45 44 46 46 46 47 46 49 49 49 49 47 48 50 50 52 54 54 55 56 50 43 38 46 39 54 59 58 56 57 57 56 54 52
MSLP
1005.35 1005.52 1005.73 1005.78 1005.81 1005.99 1006.21 1006.07 1005.91 1005.58 1005.19 1004.79 1004.72 1004.80 1005.00 1005.31 1005.22 1004.97 1003.91 1003.43 1003.72 1004.27 1004.63 1005.13 1005.64 1005.69 1006.38 1006.66 1006.76 1006.24 1006.60 1006.54 1007.42 1007.32 1007.42 1007.13 1007.28 1007.28 1007.37 1007.36 1007.53 1007.50 1007.25
1004.73 1004.99 1005.16 1005.26 1005.37 1005.70 1005.98 1005.83 1005.61 1005.36 1004.91 1004.82 1004.53 1004.29 1004.24 1004.21 1004.35 1004.74 1004.44 1004.11 1003.71 1004.04 1004.12 1004.14 1004.70 1005.55 1006.74 1007.04 1006.84 1006.51 1005.37 1005.77 1006.63 1007.55 1007.61 1007.45 1007.03 1007.23 1007.33 1007.20 1007.03 1006.80 1006.82
1004.19 1004.29 1004.40 1004.60 1004.83 1004.92 1005.02 1004.99 1005.01 1005.00 1004.80 1004.53 1004.34 1003.96 1003.31 1003.14 1003.23 1003.28 1003.07 1003.14 1003.32 1003.08 1002.72 1002.68 1003.13 1004.70 1006.76 1005.12 1006.46 1006.07 1005.32 1005.60 1006.30 1006.89 1007.72 1007.31 1006.76 1006.78 1006.77 1007.03 1006.87 1006.53 1006.06
1003.50 1003.57 1003.78 1003.87 1003.77 1003.94 1004.14 1004.33 1004.34 1004.39 1004.33 1004.15 1004.00 1003.85 1003.40 1002.99 1002.50 1001.92 1001.86 1002.03 1002.01 1001.94 1001.88 1001.99 1002.16 1002.49 1003.82 1004.44 1004.74 1004.60 1005.11 1005.37 1006.17 1006.68 1007.18 1006.81 1006.25 1006.00 1006.75 1007.07 1007.16 1006.49 1006.07
1003.21 1003.19 1003.19 1003.11 1003.08 1002.99 1003.23 1003.42 1003.36 1003.52 1003.48 1003.20 1003.09 1003.09 1002.91 1002.56 1001.82 1001.15 1000.64 1000.74 999.65 1001.13 1000.58 1001.60 1000.84 1000.97 1002.16 1003.02 1003.81 1004.41 1004.93 1005.47 1005.78 1006.44 1006.59 1006.31 1006.45 1006.62 1006.79 1006.88 1006.97 1006.48 1005.94
1003.34 1003.11 1002.73 1002.64 1002.60 1002.49 1002.54 1002.67 1002.63 1002.80 1002.81 1002.78 1002.53 1002.48 1002.39 1001.90 1001.22 1000.56 1000.16 999.13 994.90 997.09 998.61 999.90 999.70 1000.70 1001.26 1002.06 1003.23 1003.64 1003.96 1004.73 1005.45 1005.84 1005.76 1006.02 1006.15 1006.44 1006.34 1006.34 1006.70 1006.60 1006.26
1002.74 1002.39 1002.18 1002.05 1001.92 1001.88 1001.92 1002.02 1002.26 1002.38 1002.38 1002.37 1001.94 1001.92 1001.87 1001.44 1000.90 1000.44 999.67 999.42 996.36 997.21 997.37 997.82 999.03 1000.19 1000.97 1001.83 1002.73 1003.03 1003.58 1003.79 1003.95 1004.48 1005.10 1005.59 1005.88 1005.84 1005.97 1006.21 1006.66 1006.62 1006.17
1002.65 1002.25 1001.91 1001.71 1001.50 1001.38 1001.31 1001.44 1001.50 1001.64 1001.60 1001.61 1001.36 1001.20 1001.08 1000.64 1000.37 999.67 999.62 999.76 998.78 997.64 997.34 998.03 998.62 999.90 1000.56 1001.34 1002.30 1002.95 1003.50 1003.57 1003.51 1003.70 1004.55 1005.02 1004.92 1005.28 1005.68 1005.95 1006.26 1006.10 1005.77
1002.86 1002.37 1001.92 1001.54 1001.09 1000.88 1000.70 1000.77 1000.75 1000.88 1000.93 1000.74 1000.53 1000.35 1000.36 1000.06 999.90 1000.02 999.93 1000.06 999.20 998.31 998.22 998.34 998.86 999.76 1000.22 1000.58 1001.40 1002.65 1002.93 1003.25 1002.98 1003.35 1003.57 1003.97 1004.68 1005.02 1005.17 1006.06 1006.26 1006.24 1005.72
1002.43 1001.86 1001.41 1001.09 1000.72 1000.33 1000.00 999.92 999.95 1000.00 1000.03 999.94 999.78 999.65 999.76 999.43 999.35 999.48 999.93 999.98 999.59 998.23 998.38 998.52 998.62 999.21 1000.10 1000.53 1001.43 1002.58 1002.96 1003.06 1002.62 1003.10 1003.69 1004.02 1004.43 1004.54 1004.74 1005.21 1005.28 1005.41 1005.20
1001.97 1001.57 1001.08 1000.63 1000.08 999.62 999.26 999.03 999.04 999.00 998.93 999.09 999.02 998.97 998.96 998.88 998.48 998.67 998.94 999.64 998.86 998.54 998.73 998.96 998.92 999.06 999.61 1000.46 1001.13 1001.77 1001.95 1002.18 1002.93 1003.14 1003.53 1003.92 1004.23 1004.38 1004.24 1004.04 1004.04 1004.32 1004.45
1001.64 1001.03 1000.46 999.94 999.46 998.84 998.55 998.19 998.14 997.97 998.14 998.37 998.42 998.44 998.33 997.97 997.77 997.78 998.19 998.35 998.22 998.47 998.59 998.41 998.48 999.12 999.76 1000.30 1001.02 1001.01 1001.40 1001.94 1002.72 1003.20 1003.65 1003.94 1004.13 1004.15 1003.79 1003.49 1003.36 1003.49 1003.40
1001.01 1000.51 999.98 999.34 998.73 998.19 997.68 997.26 997.33 997.31 997.48 997.71 997.79 997.79 997.84 997.57 997.29 997.32 997.10 997.21 998.12 997.97 998.06 997.72 998.45 999.26 999.60 1000.44 1000.67 1000.86 1001.56 1002.16 1002.58 1003.29 1003.67 1003.57 1003.43 1003.13 1003.16 1003.04 1002.76 1002.63 1002.36
1000.49 1000.00 999.43 998.91 998.10 997.45 996.98 996.59 996.62 996.83 996.97 997.26 997.26 997.34 997.40 997.45 997.52 997.53 997.46 997.89 998.36 997.68 998.10 998.27 998.48 999.30 1000.24 1000.61 1001.17 1001.46 1001.61 1002.08 1002.32 1002.72 1002.78 1002.70 1002.71 1002.80 1002.98 1002.80 1002.72 1002.18 1001.86
999.80 999.23 998.75 998.08 997.40 996.68 996.28 996.05 996.02 996.05 996.41 996.80 996.97 997.03 997.13 997.36 997.82 997.76 997.89 997.70 997.65 997.40 997.62 998.21 998.94 999.81 1000.30 1000.54 1000.83 1001.31 1001.79 1002.04 1002.20 1002.06 1002.25 1002.43 1002.40 1002.46 1002.44 1002.36 1002.13 1001.78 1001.78
998.87 998.32 997.90 997.34 996.67 996.07 995.70 995.44 995.40 995.80 996.06 996.38 996.83 997.05 997.02 997.34 997.50 997.20 997.44 998.14 997.39 997.89 998.44 998.50 998.95 999.39 999.86 1000.24 1000.57 1001.11 1001.50 1001.62 1001.62 1001.60 1001.71 1001.87 1002.00 1002.03 1001.99 1001.87 1001.72 1001.62 1001.78
998.08 997.46 997.03 996.70 996.16 995.66 995.35 995.04 995.03 995.28 995.66 996.03 996.36 996.76 996.84 997.20 997.29 997.36 997.72 997.37 997.38 997.88 997.94 998.18 998.64 998.90 999.40 999.83 1000.09 1000.65 1001.02 1000.92 1000.78 1000.98 1001.04 1001.26 1001.35 1001.50 1001.72 1001.63 1001.52 1001.59 1001.81
997.18 996.53 996.03 995.69 995.55 995.37 994.78 994.70 994.63 994.85 995.20 995.56 995.79 996.14 996.56 996.84 997.40 997.61 997.72 997.26 997.48 997.90 997.43 997.72 998.04 998.28 998.88 999.32 999.59 1000.03 1000.23 1000.26 1000.47 1000.45 1000.54 1000.82 1001.02 1001.11 1001.35 1001.32 1001.31 1001.32 1001.55
996.27 995.56 995.08 994.64 994.55 994.63 994.37 994.22 994.43 994.54 994.86 995.06 995.18 995.29 995.72 996.25 996.78 997.12 997.45 997.70 997.56 997.63 997.12 997.24 997.12 997.65 998.20 998.58 999.05 999.60 999.82 999.96 999.99 1000.01 1000.18 1000.43 1000.61 1000.77 1000.95 1000.82 1000.76 1001.06 1001.20
995.00 994.37 994.16 993.87 993.68 993.73 993.83 993.70 993.91 994.30 994.10 994.52 994.86 995.06 995.50 996.13 996.61 996.87 996.81 996.96 997.24 997.22 996.91 996.82 996.59 997.27 997.83 998.42 998.90 999.34 999.56 999.73 999.65 999.69 999.84 999.98 1000.03 1000.29 1000.28 1000.29 1000.20 1000.52 1000.92
994.04 993.21 993.00 992.90 992.83 993.00 993.29 993.44 993.62 993.86 994.12 994.24 994.35 994.56 994.93 995.52 995.82 995.88 996.07 996.41 996.42 996.53 996.53 996.27 996.47 997.04 997.62 998.21 998.64 999.01 999.30 999.26 999.13 999.24 999.26 999.34 999.65 999.72 999.82 1000.05 1000.18 1000.23 1000.40
993.13 992.32 991.98 991.85 991.92 992.41 992.85 993.19 993.51 993.76 993.99 994.10 994.36 994.65 994.74 995.11 995.30 995.40 995.58 995.91 995.99 996.08 995.98 996.14 996.23 996.74 997.28 997.72 998.19 998.63 998.64 998.71 998.83 998.80 998.82 998.95 999.00 999.22 999.30 999.32 999.53 1000.09 1000.15
992.80 991.96 991.72 991.32 991.46 992.20 992.79 993.14 993.44 993.63 993.70 993.94 994.19 994.45 994.65 994.86 995.06 995.08 995.04 995.35 995.42 995.59 995.96 996.17 996.22 996.77 996.98 997.36 997.62 997.82 998.16 998.37 998.26 998.22 998.42 998.58 998.89 998.98 998.96 998.89 999.15 999.48 999.55
993.67 992.83 992.31 992.28 992.16 992.47 992.82 993.12 993.40 993.64 993.72 993.82 994.02 994.30 994.56 994.81 994.95 994.94 994.88 995.05 995.27 995.67 995.61 995.84 996.14 996.40 996.70 997.07 997.36 997.44 997.70 998.00 998.14 997.96 997.91 998.31 998.54 998.60 998.64 998.47 999.10 999.21 1000.25
994.79 994.00 993.49 993.12 993.00 993.03 993.12 993.17 993.29 993.46 993.64 993.70 993.84 994.06 994.20 994.36 994.60 994.58 994.62 994.75 995.00 995.20 995.28 995.30 995.74 996.15 996.56 996.93 997.31 997.30 997.58 997.66 997.84 997.96 997.88 997.95 998.14 998.53 998.56 998.78 999.08 1000.32 1000.92
996.22 995.63 995.02 994.49 994.02 993.66 993.43 993.42 993.47 993.43 993.52 993.62 993.86 994.03 994.10 994.25 994.41 994.54 994.68 994.89 995.01 995.10 995.13 995.20 995.55 996.03 996.38 996.63 997.04 997.18 997.40 997.69 997.75 997.79 997.98 998.19 998.33 998.44 998.82 999.26 999.81 1000.38 1001.25
Wind_Speed
7 6 6 4 4 4 3 5 4 6 7 11 9 4 4 7 5 11 10 13 15 11 3 5 5 1 1 8 12 5 4 4 5 3 2 2 3 5 3 4 5 6 6
8 6 6 5 3 3 5 6 5 6 6 7 9 11 7 3 6 3 10 15 17 8 10 13 7 2 5 8 16 16 5 5 5 5 1 3 1 3 4 5 5 6 7
8 8 7 6 5 5 5 5 6 7 7 8 10 12 14 9 4 7 4 4 14 13 11 12 14 11 17 15 21 11 4 4 4 4 3 3 3 2 6 6 6 6 4
8 8 8 8 8 7 6 5 5 7 7 7 7 8 8 7 7 8 7 9 12 16 11 13 16 18 19 17 13 7 4 4 4 4 4 4 2 3 4 5 5 3 4
5 6 8 8 8 7 7 7 7 6 8 7 9 8 7 7 6 8 12 17 22 21 13 18 23 22 23 16 8 6 6 4 4 4 2 2 2 2 3 2 2 3 3
6 6 7 7 7 7 7 7 7 7 7 7 8 9 8 8 10 9 14 21 26 22 24 24 17 21 15 17 14 12 10 7 5 5 3 3 2 2 1 0 1 3 3
8 8 8 7 7 7 6 5 4 6 5 7 8 8 8 10 9 6 9 15 9 18 15 15 11 9 13 12 12 12 9 11 9 7 5 4 3 4 3 0 3 4 4
7 7 6 7 9 7 5 6 6 5 6 7 7 10 8 9 11 10 4 14 10 12 6 10 11 9 11 12 9 8 6 5 6 4 5 7 5 4 3 3 3 4 4
11 11 11 11 11 9 10 11 12 12 7 6 6 7 7 11 13 11 5 10 8 7 8 8 10 10 13 16 10 7 5 3 6 12 10 6 5 6 6 1 4 2 4
15 16 15 16 18 19 18 17 13 11 8 5 7 3 7 10 14 14 11 8 6 3 1 7 13 11 16 15 11 8 7 6 3 3 3 1 3 6 9 7 4 5 3
16 18 18 17 17 14 15 15 12 10 10 7 8 5 4 7 9 15 17 11 5 2 3 3 5 13 12 11 10 7 7 6 6 4 1 3 4 5 5 5 6 6 4
17 16 16 16 14 11 16 13 11 10 7 7 6 4 3 6 10 12 18 15 9 6 5 4 4 11 14 14 10 11 11 8 4 1 0 3 4 4 5 5 4 6 6
17 17 17 16 13 14 11 10 8 7 5 5 5 4 3 4 5 10 16 13 10 6 4 4 7 10 12 10 10 11 10 5 4 2 4 5 4 5 4 4 3 6 7
16 17 15 14 14 12 10 8 8 7 4 6 6 4 3 4 3 5 3 6 12 7 9 7 6 7 10 4 6 5 4 4 5 4 5 5 3 2 2 3 3 3 3
15 13 13 11 12 11 9 7 6 5 5 6 3 4 4 2 3 7 6 3 5 8 6 4 4 3 3 4 3 4 4 4 4 4 4 5 5 3 3 2 3 1 2
14 11 9 9 9 9 8 8 13 12 9 7 7 4 1 7 5 8 8 3 5 9 1 3 4 4 5 4 4 4 4 6 6 5 5 6 4 4 3 1 2 1 1
13 12 9 9 9 8 8 6 5 4 10 12 10 9 9 5 3 7 4 10 9 9 7 7 5 5 4 5 5 5 5 6 7 5 5 5 4 3 2 2 1 0 2
14 19 10 8 7 8 7 5 6 7 6 4 8 9 10 12 10 6 5 5 3 2 8 10 9 6 7 7 5 5 4 4 3 4 3 4 4 3 3 3 3 3 3
12 9 8 8 7 8 8 6 5 6 6 6 4 4 13 14 14 12 10 3 3 3 5 5 5 5 5 4 4 4 3 2 3 3 3 4 5 4 4 4 4 4 3
11 15 14 8 6 7 7 6 6 6 4 4 4 3 4 6 6 5 5 4 4 4 4 5 6 5 5 5 3 2 2 3 4 4 5 5 4 4 4 4 4 3 3
9 8 8 6 6 6 6 6 6 6 5 2 4 4 7 5 7 8 6 6 4 3 4 4 6 5 5 5 4 3 3 5 5 5 5 4 4 4 4 4 4 3 3
8 7 5 7 6 5 5 5 5 4 5 5 4 3 6 3 3 5 7 7 5 5 2 3 5 5 5 5 5 4 5 4 4 4 3 4 3 3 4 4 3 3 4
9 7 4 6 3 6 4 3 4 5 5 6 4 2 3 3 3 3 5 8 7 6 4 2 4 5 4 4 5 5 2 3 5 4 5 3 3 4 3 2 1 4 10
10 10 9 7 6 5 4 4 4 4 4 5 5 4 4 3 3 5 4 4 7 8 5 5 4 5 3 3 3 2 1 1 3 3 3 3 4 3 2 3 5 10 10
10 10 10 8 5 4 4 4 4 4 5 3 4 3 4 6 4 4 4 2 4 5 6 6 5 6 4 5 5 6 4 4 4 3 1 3 3 3 3 4 11 8 11
11 12 10 10 9 8 4 3 2 3 4 4 5 4 4 3 4 3 3 3 3 2 5 5 6 9 10 8 7 8 5 3 4 4 2 2 4 4 6 10 12 9 11
Wind_Direction
196 218 231 247 279 302 294 305 308 312 314 324 332 348 65 51 307 292 262 233 225 247 219 58 358 235 312 312 281 280 225 157 180 265 205 187 188 204 229 251 244 248 254
206 200 207 218 230 265 286 289 279 284 292 299 311 309 296 187 181 266 306 254 245 177 180 157 211 245 233 251 274 251 207 163 140 202 267 288 296 3 273 264 269 250 236
204 212 223 215 204 217 221 241 264 275 268 291 306 307 303 291 248 217 206 310 307 239 205 191 172 195 237 203 234 227 218 155 147 133 175 216 187 163 303 265 255 259 252
220 218 217 211 213 218 228 236 255 260 255 256 261 281 282 293 307 313 261 261 310 252 212 193 194 202 217 221 217 208 205 147 148 153 190 218 186 232 216 270 290 271 275
259 234 233 231 224 220 221 228 240 258 261 252 274 275 270 281 295 309 321 292 309 228 201 223 211 209 214 205 183 192 179 149 145 153 163 137 163 135 155 211 255 286 295
308 279 261 255 249 241 242 239 237 250 253 249 255 267 274 276 275 341 336 313 254 192 189 204 193 189 160 154 147 157 154 148 151 153 156 153 201 180 210 169 336 326 307
258 258 261 258 252 242 238 226 246 271 284 267 252 261 255 259 259 278 310 295 23 2 147 135 125 143 139 137 146 137 139 143 143 153 149 172 178 204 173 241 224 240 243
295 284 286 290 283 279 278 274 276 257 260 273 261 256 231 250 238 262 252 272 302 166 139 143 130 152 155 144 139 141 153 159 166 159 166 201 201 223 193 206 218 246 272
309 305 305 297 285 276 267 266 273 274 255 246 264 280 235 253 223 225 239 272 284 162 159 145 141 158 162 139 134 154 162 217 200 189 196 182 195 238 220 136 271 246 279
289 285 281 275 272 273 276 271 264 249 246 238 254 266 300 264 219 200 214 254 253 79 216 143 141 154 166 150 149 162 157 196 135 89 81 98 234 273 267 197 211 220 221
300 292 287 289 289 282 277 264 255 238 242 246 255 239 265 291 255 222 213 228 213 183 174 174 167 151 156 154 155 160 176 158 149 141 110 320 303 285 271 250 206 205 204
292 286 284 281 280 277 271 258 261 238 217 236 247 252 236 268 256 228 240 211 188 178 205 174 164 156 160 178 179 173 153 130 138 115 329 275 265 262 270 269 208 209 218
295 290 284 285 283 270 269 263 248 229 196 237 244 245 260 266 287 244 248 226 211 179 167 135 140 174 181 189 191 170 144 145 150 165 236 252 228 231 253 260 284 262 242
287 284 279 281 284 275 268 245 233 222 209 249 251 236 256 263 53 9 278 197 234 221 132 124 102 144 187 173 107 144 154 167 181 205 224 251 262 252 241 209 248 276 273
282 281 281 278 273 269 260 246 259 202 200 225 224 223 214 182 122 96 35 251 207 226 134 85 87 104 126 148 142 152 170 182 209 229 239 257 260 250 231 212 247 303 270
282 277 271 275 270 267 262 252 223 214 219 207 156 152 308 127 126 68 31 9 46 171 97 152 147 156 161 167 153 163 177 197 224 223 228 241 227 211 239 306 273 343 234
281 281 271 267 273 261 272 257 243 223 219 231 236 185 191 162 91 64 13 352 31 150 208 204 202 174 178 188 173 176 197 210 220 226 237 234 197 188 172 255 261 95 175
285 283 269 252 250 272 252 263 239 227 215 210 224 206 195 168 171 185 165 12 13 251 187 195 198 176 181 187 178 185 213 225 225 239 243 193 183 171 203 236 217 206 197
283 273 267 261 233 240 259 225 235 236 236 227 225 197 182 181 167 178 160 161 285 251 212 173 164 157 163 158 157 168 188 241 249 270 255 184 179 182 208 210 212 195 161
283 266 251 253 243 226 241 224 219 256 214 197 219 208 123 146 166 173 186 173 185 235 248 195 155 135 131 131 132 175 237 276 278 253 221 201 190 189 211 213 202 157 177
290 278 240 242 233 220 222 213 209 207 228 281 207 176 154 151 169 176 172 186 197 217 259 188 148 144 150 169 181 197 234 258 257 249 195 194 183 216 201 205 183 185 185
284 271 260 239 213 200 200 191 192 200 210 209 229 93 137 160 161 167 175 183 186 207 218 240 154 154 178 181 189 201 225 245 247 217 201 216 211 201 218 216 157 236 179
336 335 333 341 166 146 158 174 175 195 205 191 200 156 103 130 174 225 161 176 177 201 190 178 139 137 140 143 161 159 125 287 242 190 200 203 214 226 231 141 145 149 145
355 3 12 34 77 112 129 154 168 192 197 192 182 178 177 166 195 209 200 181 178 195 188 171 167 157 139 119 152 175 171 210 281 253 193 198 231 253 254 106 112 135 127
5 10 13 15 59 90 139 145 155 167 175 208 158 160 177 189 215 180 182 187 178 171 179 176 169 185 209 236 225 227 238 265 288 308 240 242 282 220 149 119 137 132 128
13 16 15 14 14 17 35 104 135 155 166 178 167 188 203 184 170 177 177 209 235 201 184 177 179 186 208 224 221 220 224 216 262 261 283 240 173 137 117 136 143 128 131